Flag for U.S.A. Weather past 2 weeks in Lansing, Michigan, U.S.A.

Now
15 °F

Sunny.


Feels Like: 9 °F
Forecast: 11 / 23 °F
Wind: 3 mph from Northeast

Location: Capital City Airport

Current Time: Jan 27, 2015 at 9:49:38 AM

Latest Report: Jan 27, 2015 at 8:53 AM


Visibility: 9 mi

Pressure: 30.16 "Hg

Humidity: 77%

Dew point: 9 °F

Location of LansingLocation

Historic Weather in Lansing — Graph

°F

Lansing temperature yesterday

Maximum temperature yesterday: 24 °F (at 2:53 PM)
Minimum temperature yesterday: 8 °F (at 7:53 AM)
Average temperature yesterday: 16 °F

Past Weeks' High & Low Weather Summary

 TemperatureHumidityPressure
High44 °F (Jan 17, 3:53 PM)96% (Jan 25, 12:53 AM)30.81 "Hg (Jan 25, 12:53 AM)
Low-11 °F (Jan 14, 5:53 AM)46% (Jan 26, 3:53 PM)29.59 "Hg (Jan 24, 2:53 PM)
Average23 °F76%30.09 "Hg
* Reported Jan 12 8:53 AM — Jan 27 8:53 AM, Lansing, Weather by CustomWeather, © 2014

Note: Actual official high and low records may vary slightly from our data, if they occured in-between our weather recording intervals... More about our weather records

Advertising

Lansing weather history for previous 24 hours

 ConditionsComfort  
Time TempWeatherWind HumidityBarometerVisibility
8:53 AM
Jan 27
15 °FSunny.3 mph77%30.16 "Hg9 mi
7:53 AM14 °FPassing clouds.3 mph84%30.14 "Hg9 mi
6:53 AM15 °FMostly cloudy.5 mph83%30.10 "Hg10 mi
5:53 AM15 °FClear.5 mph80%30.08 "Hg9 mi
4:53 AM14 °FPassing clouds.5 mph84%30.06 "Hg9 mi
3:53 AM14 °FPassing clouds.5 mph84%30.05 "Hg9 mi
2:53 AM15 °FOvercast.3 mph80%30.04 "Hg10 mi
1:53 AM15 °FOvercast.3 mph80%30.02 "Hg10 mi
12:53 AM15 °FPassing clouds.5 mph80%30.02 "Hg10 mi
11:53 PM
Jan 26
15 °FPartly cloudy.3 mph80%30.03 "Hg10 mi
10:53 PM16 °FOvercast.5 mph80%30.01 "Hg10 mi
9:53 PM16 °FPassing clouds.6 mph77%30.01 "Hg10 mi
8:53 PM18 °FClear.7 mph65%30.02 "Hg10 mi
7:53 PM18 °FClear.5 mph65%30.01 "Hg10 mi
6:53 PM18 °FClear.6 mph65%29.98 "Hg10 mi
5:53 PM20 °FClear.6 mph62%29.97 "Hg10 mi
4:53 PM22 °FSunny.6 mph55%29.96 "Hg10 mi
3:53 PM24 °FSunny.7 mph46%29.95 "Hg10 mi
2:53 PM24 °FOvercast.5 mph48%29.94 "Hg10 mi
1:53 PM22 °FSunny.No wind52%29.95 "Hg10 mi
12:53 PM21 °FPassing clouds.5 mph57%29.97 "Hg10 mi
11:53 AM19 °FSunny.3 mph65%30.00 "Hg10 mi
10:53 AM17 °FSunny.7 mph74%30.01 "Hg10 mi
9:53 AM14 °FSunny.7 mph84%30.01 "Hg10 mi
Weather by CustomWeather, © 2014

See weather overviewHow to use our weather pages